Weather History for Little Rock AFB, AR

Change the Weather History Date:

Wednesday, June 26, 2013

  Actual Average Record
Temperature  
Mean Temperature 86 °F -  
Max Temperature 95 °F 87 °F 99 °F (1970)
Min Temperature 76 °F 68 °F 51 °F (1974)
Cooling Degree Days 20    
Growing Degree Days 36 (Base 50)    
Moisture  
Dew Point 71 °F    
Average Humidity 62    
Maximum Humidity 85    
Minimum Humidity 47    
Precipitation  
Precipitation 0.00 in - - ()
Sea Level Pressure  
Sea Level Pressure 29.92 in    
Wind  
Wind Speed 9 mph (SSW)    
Max Wind Speed 16 mph    
Max Gust Speed 25 mph    
Visibility 10 miles    
Events      
Averages and records for this station are not official NWS values.
T = Trace of Precipitation, MM = Missing Value Source: NWS Daily Summary

Daily Weather History Graph

Daily Weather History Graph

Search for Another Location

Airport:

Trip Planner

Search our weather history database for the weather conditions in past years. The results will help you decide how hot, cold, wet, or windy it might be!

Date:

Astronomy

Jun. 26, 2013 Rise Set
Actual Time 5:56 AM CDT 8:26 PM CDT
Civil Twilight 5:27 AM CDT 8:55 PM CDT
Nautical Twilight 4:50 AM CDT 9:32 PM CDT
Astronomical Twilight 4:09 AM CDT 10:12 PM CDT
Moon 11:00 PM CDT (6/26) 9:39 AM CDT (6/26)
Length of Visible Light 15h 28m
Length of Day
14h 29m
Waning Gibbous, 85% of the Moon is Illuminated
Jun 26
Waning Gibbous
Jun 29
Last Quarter
Jul 8
New
Jul 15
First Quarter
Jul 22
Full

Hourly Weather History & Observations

Time (CDT) Temp. Heat Index Dew Point Humidity Pressure Visibility Wind Dir Wind Speed Gust Speed Precip Events Conditions
12:58 AM 80.6 °F 84.2 °F 70.9 °F 72% 29.93 in 10.0 mi South 6.9 mph - N/A   Clear
1:58 AM 79.3 °F - 71.2 °F 76% 29.92 in 10.0 mi South 5.8 mph - N/A   Clear
2:58 AM 78.3 °F - 71.2 °F 79% 29.91 in 10.0 mi South 6.9 mph - N/A   Clear
3:58 AM 77.2 °F - 71.2 °F 82% 29.91 in 10.0 mi South 4.6 mph - N/A   Clear
4:58 AM 76.8 °F - 71.4 °F 83% 29.92 in 10.0 mi Variable 4.6 mph - N/A   Clear
5:58 AM 76.1 °F - 71.4 °F 85% 29.94 in 10.0 mi Variable 3.5 mph - N/A   Clear
6:58 AM 76.8 °F - 72.0 °F 85% 29.96 in 10.0 mi Variable 4.6 mph - N/A   Clear
7:58 AM 80.1 °F 84.1 °F 72.5 °F 78% 29.96 in 10.0 mi SSW 9.2 mph - N/A   Clear
8:58 AM 83.1 °F 88.6 °F 72.5 °F 70% 29.97 in 10.0 mi SW 11.5 mph - N/A   Clear
9:58 AM 86.5 °F 91.0 °F 69.6 °F 57% 29.96 in 10.0 mi SW 12.7 mph 23.0 mph N/A   Clear
10:58 AM 89.6 °F 94.3 °F 69.1 °F 51% 29.95 in 10.0 mi SW 16.1 mph 25.3 mph N/A   Clear
11:58 AM 91.2 °F 96.0 °F 69.3 °F 48% 29.96 in 10.0 mi SW 16.1 mph 23.0 mph N/A   Partly Cloudy
12:15 PM 91.4 °F 96.8 °F 69.8 °F 49% 29.95 in 10.0 mi SSW 13.8 mph - N/A   Partly Cloudy
12:47 PM 91.4 °F 96.8 °F 69.8 °F 49% 29.94 in 10.0 mi SSW 16.1 mph 21.9 mph N/A   Partly Cloudy
12:58 PM 92.7 °F 98.3 °F 69.6 °F 47% 29.94 in 10.0 mi SSW 13.8 mph 21.9 mph N/A   Scattered Clouds
1:44 PM 95.0 °F 103.2 °F 71.6 °F 47% 29.94 in 10.0 mi SW 15.0 mph - N/A   Scattered Clouds
1:58 PM 91.9 °F 98.4 °F 70.9 °F 50% 29.93 in 10.0 mi SW 12.7 mph - N/A   Partly Cloudy
2:58 PM 91.8 °F 99.1 °F 71.6 °F 52% 29.91 in 10.0 mi SSW 15.0 mph - N/A   Partly Cloudy
3:58 PM 94.5 °F 103.3 °F 72.9 °F 49% 29.89 in 10.0 mi SW 12.7 mph - N/A   Clear
4:58 PM 94.6 °F 104.4 °F 73.2 °F 50% 29.88 in 10.0 mi SW 15.0 mph 19.6 mph N/A   Clear
5:58 PM 94.6 °F 104.4 °F 73.6 °F 50% 29.86 in 10.0 mi SW 13.8 mph - N/A   Clear
6:58 PM 93.2 °F 103.0 °F 73.9 °F 53% 29.86 in 10.0 mi SSW 11.5 mph - N/A   Clear
7:58 PM 90.1 °F 97.8 °F 72.3 °F 56% 29.87 in 10.0 mi SSW 10.4 mph - N/A   Clear
8:58 PM 87.8 °F 93.8 °F 71.2 °F 58% 29.88 in 10.0 mi Variable 6.9 mph - N/A   Clear
9:58 PM 85.5 °F 90.8 °F 70.9 °F 62% 29.89 in 10.0 mi SSW 9.2 mph - N/A   Clear
10:58 PM 85.3 °F 90.1 °F 70.5 °F 61% 29.91 in 10.0 mi SW 8.1 mph - N/A   Clear
11:58 PM 83.1 °F 87.6 °F 70.7 °F 66% 29.91 in 10.0 mi WSW 8.1 mph - N/A   Partly Cloudy